STARLINK-3751 (52289 NORAD) Tracking and Keplerian Element Data
This shows tracking and keplerian element data for the satellite.
Feedback or suggestion? Click here.
Element | Value |
Catalog | 52289 |
Name | STARLINK-3751 |
Epoch Orbit | 130 |
Epoch Day | 167.08334491 |
Epoch Year | 2022 |
RAAN | 101.3603 |
Inclination | 53.2172 |
Eccentricity | 0.000122 |
Argument of Perigee | 82.1496 |
Mean Anonmoly | 182.8156 |
Mean Motion | 15.54914234 |
Decay Rate | -0.00712892 |
L1 | 1 52289U 22041AE 22167.08334491 -.00712892 00000+0 -11448-1 0 9994 |
L2 | 2 52289 53.2172 101.3603 0001220 82.1496 182.8156 15.54914234 1300 |
Live tracking and technical data element details for STARLINK-3751 (NORAD 52289). STARLINK-3751 can be tracked NOW for your location showing map with azimuth and elevation plus other details from your city location.
Track the satellite on the map from your city or location and see movement details for azimuth, elevation, latitude, longitude, range, height, and movement on the map or in text.
IsCatalogInMostPopularTable: catalog: 52289, numindb: 3
Update: records affected: 1
GetName: 52289 STARLINK-3751
Hit Count: updated at: Sat, 25 Jun 2022 04:47:50 GMT